sat.trackr.live / text

‹ back to catalog

CYGFM07

NORAD 41890 · 2016-078G

PAYLOAD INACTIVE UNKNOWN

§ Identity

Operator
Country
US
Launch date
2016-12-15
Launch site
ERAS
Launch vehicle
Mass (kg)
RCS (m²)
0.32

Purposes: earth_obs

External: N2YO · Heavens-Above · Gunter

§ Orbital elements

Epoch: 2026-05-25T00:59:24.046656Z

Period
92.38 min
Inclination
34.9462°
Eccentricity
0.0008318
Mean motion
15.58744185 rev/d
Perigee alt
385.7 km
Apogee alt
396.9 km
Semi-major
6,769.4 km
B*
3.1792e-4
RAAN
23.5042°
Arg perigee
327.8633°
Mean anomaly
32.1584°
Rev number
52,538

§ Raw data

CYGFM071 41890U 16078G   26145.04125054  .00025401  00000+0  31792-3 0  99992 41890  34.9462  23.5042 0008318 327.8633  32.1584 15.58744185525384

JSON: /api/v1/satellites/41890 · /tle

For live sub-satellite position, see the globe view (requires WebGL).

§ Visibility from observer

Set your observer location to see the next 7 days of passes ≥ 10°. The values pass through the URL so the page stays shareable.

No JS? Fill the form by hand. The geolocation button needs JavaScript.